This is the latest recevied weather packets stored in our database for station/object KB4MOX. If no packets are shown the sender has not sent any weather packets the latest 10 day(s).
| Time | Temp. | Humidity | Pressure | Rain* | Wind** | Luminosity | Snow |
|---|---|---|---|---|---|---|---|
| 1787600254 | 34.44° C | 36% | 1015 hPa | 0 mm | - | 670 W/m² | - |
| 1787599951 | 34.44° C | 36% | 1015 hPa | 0 mm | - | 682 W/m² | - |
| 1787599646 | 34.44° C | 37% | 1015 hPa | 0 mm | - | 693 W/m² | - |
| 1787599343 | 34.44° C | 37% | 1015.3 hPa | 0 mm | - | 702 W/m² | - |
| 1787599038 | 34.44° C | 37% | 1015.1 hPa | 0 mm | - | 703 W/m² | - |
| 1787598734 | 34.44° C | 37% | 1015.4 hPa | 0 mm | - | 726 W/m² | - |
| 1787598429 | 34.44° C | 37% | 1015.4 hPa | 0 mm | - | 723 W/m² | - |
| 1787598125 | 34.44° C | 36% | 1015.5 hPa | 0 mm | - | 728 W/m² | - |
| 1787597820 | 33.89° C | 38% | 1015.5 hPa | 0 mm | - | 743 W/m² | - |
| 1787597520 | 33.89° C | 37% | 1015.7 hPa | 0 mm | - | 752 W/m² | - |
| 1787597219 | 33.33° C | 38% | 1015.9 hPa | 0 mm | - | 753 W/m² | - |
| 1787596914 | 33.89° C | 38% | 1015.8 hPa | 0 mm | - | 759 W/m² | - |
| 1787596611 | 33.89° C | 38% | 1015.8 hPa | 0 mm | - | 766 W/m² | - |
| 1787596311 | 33.89° C | 38% | 1015.8 hPa | 0 mm | - | 772 W/m² | - |
| 1787596007 | 33.89° C | 38% | 1016 hPa | 0 mm | - | 777 W/m² | - |
| 1787595703 | 33.89° C | 38% | 1016 hPa | 0 mm | - | 780 W/m² | - |
| 1787595398 | 33.89° C | 38% | 1015.9 hPa | 0 mm | - | 782 W/m² | - |
| 1787595093 | 33.33° C | 38% | 1016.1 hPa | 0 mm | - | 784 W/m² | - |
| 1787594793 | 33.33° C | 39% | 1016.2 hPa | 0 mm | - | 786 W/m² | - |
| 1787594492 | 33.33° C | 42% | 1016.2 hPa | 0 mm | - | 795 W/m² | - |
| 1787594191 | 32.78° C | 40% | 1016.2 hPa | 0 mm | - | 793 W/m² | - |
| 1787593886 | 33.33° C | 39% | 1016.2 hPa | 0 mm | - | 794 W/m² | - |
| 1787593582 | 32.78° C | 39% | 1016.2 hPa | 0 mm | - | 796 W/m² | - |
| 1787593277 | 32.78° C | 41% | 1016.2 hPa | 0 mm | - | 796 W/m² | - |
| 1787592972 | 32.78° C | 40% | 1016.3 hPa | 0 mm | - | 792 W/m² | - |
* Rain latest hour (hover to see other rain measurements)
** Current wind speed in m/s (hover to see current wind gust speed)